Overview Statistics Trail Chart Weather Telemetry Raw packets
 

This is the latest recevied weather packets stored in our database for station/object NT9G. If no packets are shown the sender has not sent any weather packets the latest 10 day(s).

<< 52 53 54 55 56 57 58 >>
Time Temp. Humidity Pressure Rain* Wind** Luminosity Snow
1777498347 15.56° C 30% 1015.4 hPa 1.02 mm - - -
1777498047 15.56° C 30% 1015.4 hPa 1.02 mm - - -
1777497747 15.56° C 31% 1015.4 hPa 1.02 mm - - -
1777497446 15.56° C 32% 1015.4 hPa 1.02 mm - - -
1777497146 16.11° C 29% 1015.5 hPa 1.02 mm - - -
1777496846 16.11° C 29% 1015.4 hPa 1.02 mm - - -
1777496245 15.56° C 26% 1015.6 hPa 1.02 mm - - -
1777495945 15.56° C 28% 1015.5 hPa 1.02 mm - - -
1777495645 15.56° C 28% 1015.6 hPa 1.02 mm - - -
1777495344 16.11° C 30% 1015.6 hPa 1.02 mm - - -
1777495044 16.11° C 31% 1015.6 hPa 1.02 mm - - -
1777494744 15.56° C 29% 1015.7 hPa 1.02 mm - - -
1777494444 15.56° C 33% 1015.7 hPa 1.02 mm - - -
1777494143 15° C 33% 1015.8 hPa 1.02 mm - - -
1777493843 15° C 33% 1015.8 hPa 1.02 mm - - -
1777493543 15.56° C 31% 1015.8 hPa 1.02 mm - - -
1777493242 16.11° C 30% 1016 hPa 1.02 mm - - -
1777492942 15.56° C 33% 1015.9 hPa 1.02 mm - - -
1777492642 15.56° C 31% 1016.2 hPa 1.02 mm - - -
1777492342 15.56° C 32% 1016 hPa 1.02 mm - - -
1777492041 16.11° C 31% 1016 hPa 1.02 mm - - -
1777491741 15.56° C 31% 1016 hPa 1.02 mm - - -
1777491441 16.11° C 32% 1016 hPa 1.02 mm - - -
1777491140 16.11° C 34% 1015.9 hPa 1.02 mm - - -
1777490840 15.56° C 32% 1015.9 hPa 1.02 mm - - -

* Rain since midnight (hover to see other rain measurements)
** Current wind speed in m/s (hover to see current wind gust speed)